SCP
0 0 0 0 0 0 0 0 0 0 0 0 0 0 0 0 0 0 0 0 0 0 0 0 0 0 0 0 0 0 0 0 0 0 0 0 0 0 0 0 0 0 0 0 0 0 0 0 0
0 0 0 0 0 0 0 0 0 0 0 0 0 0 0 0 0 0 0 0 0 0 0 0 0 0 0 0 0 0 0 0 0 0 0 0 0 0 0 0 0 0 0 0 0 0 0 0 0
0 0 0 0 0 0 0 0 0 0 0 0 0 0 0 0 0 0 0 0 0 0 0 0 0 0 0 0 0 0 0 0 0 0 0 0 0 0 0 0 0 0 0 0 0 0 0 0 0
0 0 0 0 0 0 0 0 0 0 0 0 0 0 0 0 0 0 0 0 0 0 0 0 0 0 0 0 0 0 0 0 0 0 0 0 0 0 0 0 0 0 0 0 0 0 0 0 0
0 0 0 0 0 0 0 0 0 0 0 0 0 0 0 0 0 0 0 0 0 0 0 0 0 0 0 0 0 0 0 0 0 0 0 0 0 0 0 0 0 0 0 0 0 0 0 0 0
0 0 0 0 0 0 0 0 0 0 0 0 0 0 0 0 0 0 0 0 0 0 0 0 0 0 0 0 0 0 0 0 0 0 0 0 0 0 0 0 0 0 0 0 0 0 0 0 0
0 0 0 0 0 0 0 0 0 0 0 0 0 0 0 0 0 0 0 0 0 0 0 0 0 0 0 0 0 0 0 0 0 0 0 0 0 0 0 0 0 0 0 0 0 0 0 0 0
0 0 0 0 0 0 0 0 0 0 0 0 0 0 0 0 0 0 0 0 0 0 0 0 0 0 0 0 0 0 0 0 0 0 0 0 0 0 0 0 0 0 0 0 0 0 0 0 0
0 0 0 0 0 0 0 0 0 0 0 0 0 0 0 0 0 0 0 0 0 0 0 0 0 0 0 0 0 0 0 0 0 0 0 0 0 0 0 0 0 0 0 0 0 0 0 0 0
0 0 0 0 0 0 0 0 0 0 0 0 0 0 0 0 0 0 0 0 0 0 0 0 0 0 0 0 0 0 0 0 0 0 0 0 0 0 0 0 0 0 0 0 0 0 0 0 0
0 0 0 0 0 0 0 0 0 0 0 0 0 0 0 0 0 0 0 0 0 0 0 0 0 0 0 0 0 0 0 0 0 0 0 0 0 0 0 0 0 0 0 0 0 0 0 0 0
0 0 0 0 0 0 0 0 0 0 0 0 0 0 0 0 0 0 0 0 0 0 0 0 0 0 0 0 0 0 0 0 0 0 0 0 0 0 0 0 0 0 0 0 0 0 0 0 0
0 0 0 0 0 0 0 0 0 0 0 0 0 0 0 0 0 0 0 0 0 0 0 0 0 0 0 0 0 0 0 0 0 0 0 0 0 0 0 0 0 0 0 0 0 0 0 0 0
0 0 0 0 0 0 0 0 0 0 0 0 0 0 0 0 0 0 0 0 0 0 0 0 0 0 0 0 0 0 0 0 0 0 0 0 0 0 0 0 0 0 0 0 0 0 0 0 0
0 0 0 0 0 0 0 0 0 0 0 0 0 0 0 0 0 0 0 0 0 0 0 0 0 0 0 0 0 0 0 0 0 0 0 0 0 0 0 0 0 0 0 0 0 0 0 0 0
0 0 0 0 0 0 0 0 0 0 0 0 0 0 0 0 0 0 0 0 0 0 0 0 0 0 0 0 0 0 0 0 0 0 0 0 0 0 0 0 0 0 0 0 0 0 0 0 0
0 0 0 0 0 0 0 0 0 0 0 0 0 0 0 0 0 0 0 0 0 0 0 0 0 0 0 0 0 0 0 0 0 0 0 0 0 0 0 0 0 0 0 0 0 0 0 0 0
0 0 0 0 0 0 0 0 0 0 0 0 0 0 0 0 0 0 0 0 0 0 0 0 0 0 0 0 0 0 0 0 0 0 0 0 0 0 0 0 0 0 0 0 0 0 0 0 0
0 0 0 0 0 0 0 0 0 0 0 0 0 0 0 0 0 0 0 0 0 0 0 0 0 0 0 0 0 0 0 0 0 0 0 0 0 0 0 0 0 0 0 0 0 0 0 0 0
0 0 0 0 0 0 0 0 0 0 0 0 0 0 0 0 0 0 0 0 0 0 0 0 0 0 0 0 0 0 0 0 0 0 0 0 0 0 0 0 0 0 0 0 0 0 0 0 0
0 0 0 0 0 0 0 0 0 0 0 0 0 0 0 0 0 0 0 0 0 0 0 0 0 0 0 0 0 0 0 0 0 0 0 0 0 0 0 0 0 0 0 0 0 0 0 0 0
0 0 0 0 0 0 0 0 0 0 0 0 0 0 0 0 0 0 0 0 0 0 0 0 0 0 0 0 0 0 0 0 0 0 0 0 0 0 0 0 0 0 0 0 0 0 0 0 0
0 0 0 0 0 0 0 0 0 0 0 0 0 0 0 0 0 0 0 0 0 0 0 0 0 0 0 0 0 0 0 0 0 0 0 0 0 0 0 0 0 0 0 0 0 0 0 0 0
0 0 0 0 0 0 0 0 0 0 0 0 0 0 0 0 0 0 0 0 0 0 0 0 0 0 0 0 0 0 0 0 0 0 0 0 0 0 0 0 0 0 0 0 0 0 0 0 0
0 0 0 0 0 0 0 0 0 0 0 0 0 0 0 0 0 0 0 0 0 0 0 0 0 0 0 0 0 0 0 0 0 0 0 0 0 0 0 0 0 0 0 0 0 0 0 0 0
0 0 0 0 0 0 0 0 0 0 0 0 0 0 0 0 0 0 0 0 0 0 0 0 0 0 0 0 0 0 0 0 0 0 0 0 0 0 0 0 0 0 0 0 0 0 0 0 0
0 0 0 0 0 0 0 0 0 0 0 0 0 0 0 0 0 0 0 0 0 0 0 0 0 0 0 0 0 0 0 0 0 0 0 0 0 0 0 0 0 0 0 0 0 0 0 0 0
0 0 0 0 0 0 0 0 0 0 0 0 0 0 0 0 0 0 0 0 0 0 0 0 0 0 0 0 0 0 0 0 0 0 0 0 0 0 0 0 0 0 0 0 0 0 0 0 0
0 0 0 0 0 0 0 0 0 0 0 0 0 0 0 0 0 0 0 0 0 0 0 0 0 0 0 0 0 0 0 0 0 0 0 0 0 0 0 0 0 0 0 0 0 0 0 0 0
0 0 0 0 0 0 0 0 0 0 0 0 0 0 0 0 0 0 0 0 0 0 0 0 0 0 0 0 0 0 0 0 0 0 0 0 0 0 0 0 0 0 0 0 0 0 0 0 0
Wind_Speed
5 3 3 3 5 5 7 4 3 4 3 0 0 2 2 1 1 3 5 3 2 4 5 7 6 6 7 7 8 9 9 9 9 10 10 10 10 10 10 10 10 10 10 11 11 11 11 12 12
4 2 3 3 6 8 6 5 5 3 2 2 2 2 2 1 3 4 2 2 2 4 5 6 6 7 7 7 8 9 9 9 9 9 9 9 9 9 9 10 10 10 10 10 10 11 11 11 11
2 2 3 4 6 7 5 3 3 2 2 2 2 0 1 2 2 2 3 1 2 4 4 6 6 7 7 7 8 9 9 9 9 9 9 9 9 9 9 9 9 9 9 9 9 10 10 10 10
2 3 3 5 7 4 2 2 2 3 3 2 2 3 2 3 3 3 2 2 3 4 4 6 5 7 7 7 8 8 9 9 9 9 8 8 8 8 8 9 9 9 9 9 9 9 9 9 9
2 3 5 6 6 3 1 1 2 4 3 2 2 2 3 3 4 3 2 2 3 4 4 5 5 6 7 7 7 8 8 8 8 8 8 8 8 8 8 8 8 8 8 8 8 8 8 8 8
3 4 6 8 7 4 2 3 4 4 2 1 1 2 2 3 3 3 2 2 3 3 3 4 4 4 6 6 7 7 8 8 8 8 8 7 7 8 8 8 8 8 8 8 8 7 7 7 7
3 4 5 6 6 5 2 2 4 4 3 1 1 2 3 2 3 2 1 2 2 3 3 3 4 4 6 6 6 6 7 8 7 7 7 7 7 7 7 7 7 7 7 7 7 7 6 6 6
2 3 5 5 6 4 2 3 1 3 2 1 1 2 0 1 2 1 2 3 3 2 2 2 3 3 4 6 6 6 6 7 7 6 6 6 6 6 6 6 6 6 6 6 6 6 6 6 6
3 4 6 5 5 3 3 3 1 0 1 1 0 3 4 2 1 2 2 2 2 2 1 1 2 3 3 4 6 6 6 6 6 6 6 5 4 5 5 5 5 5 5 6 6 6 5 5 5
3 5 5 1 2 1 3 2 2 3 2 2 1 1 2 2 2 2 2 1 1 1 1 1 1 1 2 2 4 4 4 4 4 4 5 3 3 3 3 5 4 4 4 5 5 5 4 3 3
2 3 2 1 1 1 2 2 1 3 2 3 2 1 1 2 1 1 1 1 1 1 1 1 1 0 1 2 2 2 2 3 3 3 3 3 3 2 2 2 3 3 3 3 4 4 3 2 2
3 1 1 1 0 1 2 2 2 3 2 2 2 1 2 3 2 2 2 1 1 1 0 1 1 1 0 1 2 2 2 2 2 2 2 2 2 2 2 1 2 2 2 2 2 2 3 3 3
4 2 1 1 0 1 1 3 3 4 4 2 1 1 2 3 3 2 2 1 1 1 0 0 1 1 1 1 1 2 2 2 2 2 2 2 2 2 2 1 1 1 1 2 2 2 3 3 3
3 3 2 2 2 2 3 3 4 4 3 2 2 2 2 2 3 2 2 2 2 2 1 1 1 1 1 1 1 1 2 2 2 2 2 2 2 2 2 2 1 1 1 2 2 3 3 2 2
2 2 2 2 3 2 3 5 6 4 3 3 3 3 2 2 3 3 3 3 3 2 2 2 2 2 2 1 2 1 2 2 2 1 1 1 2 2 2 2 2 1 1 2 2 2 2 2 2
3 4 4 2 3 2 5 8 2 1 4 4 3 3 3 3 3 3 3 3 3 2 2 2 2 3 3 2 2 2 1 2 2 1 1 1 1 2 2 2 1 1 1 2 2 2 2 2 3
4 5 5 3 2 2 6 7 1 1 3 3 3 3 3 3 3 3 3 2 2 2 3 3 3 3 3 3 2 2 2 1 1 1 1 1 1 1 2 1 1 1 2 2 2 2 2 2 2
5 5 5 4 2 4 7 8 4 3 4 4 4 4 4 4 3 2 2 2 2 2 2 3 3 3 3 3 3 2 2 2 1 1 1 0 1 1 1 1 2 1 1 2 2 2 2 2 1
3 4 5 4 1 4 8 9 7 5 5 6 5 5 4 3 2 1 1 1 1 1 2 3 3 3 3 3 2 2 2 2 1 1 1 1 1 0 1 1 2 1 1 2 2 2 2 2 1
5 6 6 3 2 4 6 10 8 7 7 7 7 5 4 3 2 1 1 0 1 1 2 3 4 4 4 2 2 2 2 1 1 1 1 1 1 0 0 0 1 1 2 2 2 1 2 1 2
6 7 6 4 3 4 6 8 7 5 5 5 5 5 4 3 3 1 1 1 1 2 2 1 2 3 3 3 2 2 2 2 1 1 1 1 1 1 0 1 1 1 1 2 2 3 3 2 2
6 4 5 5 5 3 3 5 5 4 5 5 4 4 4 3 3 1 1 1 2 2 1 1 2 2 2 3 3 4 3 3 2 1 1 2 2 1 1 2 2 2 2 2 2 2 3 3 3
2 1 3 4 4 4 4 6 5 3 5 4 4 3 3 3 2 1 1 1 1 1 1 1 1 2 2 2 3 3 3 2 2 2 2 2 2 2 2 2 2 2 3 3 3 3 3 2 3
2 2 2 3 4 6 6 7 6 3 4 3 2 2 2 2 2 1 1 0 0 0 1 1 1 1 2 1 2 2 2 2 2 2 3 3 2 2 2 2 2 3 3 3 3 3 4 3 4
2 3 3 4 5 5 3 7 6 2 2 3 3 3 2 2 2 1 1 0 0 0 1 1 1 1 1 1 1 1 2 2 2 2 3 3 3 3 3 3 3 3 3 4 3 4 4 4 4
5 5 4 4 4 3 4 8 3 0 2 2 3 3 2 2 1 1 1 1 1 1 1 1 1 1 1 1 1 1 1 2 2 2 2 3 3 3 4 4 4 4 4 4 4 3 4 4 4
3 5 3 2 3 5 6 5 4 2 2 1 1 2 2 2 1 1 1 1 1 1 1 1 1 1 1 1 2 2 2 2 2 2 3 3 2 2 3 4 4 4 4 4 4 4 4 4 4
3 2 3 4 4 6 6 7 5 4 3 1 1 1 2 2 2 1 1 1 1 1 1 1 2 2 2 2 2 2 2 2 2 3 3 3 3 3 3 3 4 4 4 4 4 4 4 5 4
3 3 3 3 4 6 6 3 0 3 2 2 2 2 2 3 2 2 2 2 1 1 1 2 2 2 2 3 3 3 3 3 3 3 3 3 3 3 3 4 4 4 4 4 5 5 5 5 5
4 4 4 4 4 5 6 4 3 1 1 2 3 3 3 3 3 2 2 2 2 2 2 2 3 3 3 3 3 3 3 3 3 4 4 4 4 3 4 4 4 4 4 5 5 5 5 6 6
Wind_Direction
326 308 263 232 216 219 224 200 195 168 168 110 358 242 227 243 294 59 68 82 89 140 146 147 149 143 134 133 132 129 125 123 122 120 119 116 113 110 107 104 102 99 95 95 94 94 96 95 94
318 289 233 225 230 219 209 199 196 176 114 126 155 201 173 115 35 55 82 58 117 137 142 146 137 139 134 135 136 132 130 127 125 122 122 119 116 112 111 109 106 102 99 98 97 97 98 98 96
285 273 234 213 226 233 205 160 180 139 142 177 158 186 315 60 47 49 43 67 137 134 135 127 133 136 132 133 136 134 132 131 129 126 123 121 118 115 113 112 110 106 103 101 99 99 101 101 100
237 199 211 226 219 235 261 135 155 163 162 197 190 142 115 43 6 16 44 136 139 132 131 122 128 140 136 136 138 131 133 134 132 129 126 124 122 118 115 113 110 108 107 106 104 103 103 104 103
238 214 202 214 224 219 235 259 195 193 171 166 200 172 132 70 29 40 76 138 137 130 128 130 124 138 138 139 139 136 134 135 133 132 129 127 126 122 116 113 112 111 112 111 109 108 106 109 109
196 217 217 216 209 206 208 217 209 215 190 162 202 196 130 77 43 35 63 125 129 131 130 126 121 133 142 139 139 140 139 135 131 132 130 129 127 124 122 119 116 115 115 114 113 110 108 111 111
220 213 227 220 210 211 202 200 224 226 212 211 272 205 136 80 20 8 70 96 123 132 133 131 142 141 141 134 134 133 132 134 128 126 122 120 120 124 124 122 122 121 121 118 116 113 111 111 113
271 215 212 216 216 214 168 174 244 248 237 29 279 239 137 0 358 43 93 83 83 103 137 145 151 154 158 158 140 134 129 128 125 121 117 116 122 125 120 126 121 123 124 121 120 119 118 112 114
236 221 220 216 216 197 158 176 138 330 158 137 29 347 13 53 108 101 98 89 72 57 59 150 160 164 168 168 155 151 139 129 131 127 119 134 146 143 140 125 118 125 130 128 125 124 123 122 121
218 222 226 254 255 198 168 189 160 179 184 195 183 15 46 98 128 128 122 113 88 67 45 62 147 176 176 170 166 167 157 150 152 144 147 153 146 131 124 113 118 128 132 135 130 131 146 171 150
195 223 201 220 293 250 192 186 191 210 224 249 252 233 152 161 162 177 187 198 188 159 58 48 51 125 165 172 163 162 158 157 154 146 152 152 141 134 137 137 139 147 155 157 150 165 174 181 163
175 187 221 228 213 229 229 210 210 239 266 344 303 208 175 196 203 216 227 232 202 157 95 46 72 62 104 176 164 160 155 154 149 156 156 156 149 152 150 154 152 166 178 184 186 189 182 191 186
195 185 186 233 210 259 220 226 242 261 270 277 257 191 193 212 225 227 233 237 233 204 182 251 83 93 76 95 160 145 153 157 156 158 166 162 161 167 165 163 166 177 189 196 199 203 194 200 197
170 185 215 256 238 236 240 249 244 257 254 232 216 215 223 228 235 237 244 240 241 230 219 198 170 145 123 135 132 146 145 153 154 154 172 175 171 174 173 163 168 183 208 209 208 208 208 212 207
175 197 218 237 243 236 243 245 231 241 230 225 223 224 228 237 237 236 240 243 241 232 213 193 190 169 164 165 135 128 140 136 139 141 155 170 174 178 174 173 176 189 217 217 213 207 218 217 208
195 211 225 206 236 229 237 251 207 217 225 232 234 226 221 226 236 243 241 244 242 228 210 196 188 171 168 168 153 129 121 127 134 133 129 146 164 167 170 174 186 201 207 206 204 209 217 216 211
199 225 234 214 207 225 229 255 217 220 227 235 240 240 234 234 241 243 239 233 234 225 206 195 186 175 164 159 151 130 118 110 117 140 147 186 187 176 157 157 168 198 205 208 203 213 219 223 218
214 225 232 232 195 230 233 249 258 251 250 252 255 252 243 243 251 252 250 237 226 218 201 193 180 175 164 158 147 134 125 108 83 102 107 133 196 185 168 167 172 193 204 210 210 209 221 223 212
236 235 244 253 259 246 247 259 264 257 253 255 254 252 249 255 272 286 280 271 242 217 201 192 176 172 169 164 168 160 152 133 106 78 91 108 101 134 187 185 186 199 205 217 223 214 210 199 185
229 242 255 262 268 254 266 269 267 252 250 251 256 253 253 257 263 290 293 255 225 213 210 194 183 176 172 169 167 166 146 138 129 133 116 94 97 114 168 151 222 221 222 207 207 217 223 201 201
236 242 255 265 282 242 277 265 244 235 243 252 254 254 252 255 257 254 262 260 244 223 205 173 176 173 169 161 153 149 143 141 149 165 171 185 179 175 186 225 229 227 228 228 222 216 217 214 209
245 250 249 250 252 255 267 276 248 243 244 243 247 245 250 253 252 257 264 261 252 248 218 170 138 134 147 164 168 170 175 175 192 208 208 203 202 199 212 236 232 229 231 232 231 233 230 222 213
254 285 247 246 249 258 235 253 259 231 251 249 246 237 241 241 239 246 274 277 264 248 201 171 135 125 125 147 166 184 188 189 194 208 217 216 209 218 219 240 235 228 229 232 232 227 233 231 231
192 195 209 223 236 248 234 236 260 224 244 268 266 250 253 248 249 258 287 278 261 199 156 170 151 126 121 139 169 182 188 188 198 222 221 220 218 220 226 234 240 240 238 231 231 232 231 234 234
196 209 213 207 216 236 190 233 251 245 268 282 288 290 285 255 242 253 269 306 338 270 164 175 168 146 141 148 155 196 217 215 221 244 236 231 228 229 232 235 240 244 247 244 233 230 230 232 234
211 229 242 247 248 244 209 237 240 15 305 292 289 301 307 276 244 255 272 278 255 249 220 205 201 185 179 192 223 245 253 245 246 260 263 245 245 249 248 240 242 246 249 247 240 235 234 237 236
210 221 268 281 278 261 237 247 255 212 249 290 301 314 310 304 295 282 270 269 262 248 228 224 225 224 226 233 241 243 255 263 267 273 277 271 267 267 259 249 242 242 244 244 238 236 232 235 238
277 226 205 218 239 252 248 242 237 214 234 290 325 313 316 317 306 292 285 288 289 272 253 242 234 237 246 250 256 261 256 262 267 272 278 273 272 269 262 258 248 242 242 242 238 239 237 235 237
195 209 236 234 259 262 261 244 54 219 243 266 306 314 315 311 305 291 290 289 291 282 262 247 241 245 250 251 255 257 257 258 259 262 274 274 268 264 256 254 251 244 239 237 236 237 239 238 240
262 236 222 240 240 255 270 265 75 164 287 288 309 321 321 318 312 303 303 297 290 285 275 262 253 249 252 252 252 253 256 253 253 257 266 267 263 261 257 253 248 248 246 241 239 238 240 241 243